Time,TemperatureF,DewpointF,PressureIn,WindDirection,WindDirectionDegrees,WindSpeedMPH,WindSpeedGustMPH,Humidity,HourlyPrecipIn,Conditions,Clouds,dailyrainin,SoftwareType,DateUTC
2013-03-05 00:00:00,21.0,8.6,29.68,NE,45,0.0,0.0,58,0.00,,,-99.99,VWS V12.07,2013-03-05 06:00:00,
2013-03-05 00:05:00,21.0,8.6,29.68,NE,45,0.0,0.0,58,0.00,,,-99.99,VWS V12.07,2013-03-05 06:05:00,
2013-03-05 00:10:00,21.0,8.6,29.68,NE,45,0.0,0.0,58,0.00,,,-99.99,VWS V12.07,2013-03-05 06:10:00,
2013-03-05 00:15:00,20.8,8.4,29.68,NE,45,0.0,4.6,58,0.00,,,-99.99,VWS V12.07,2013-03-05 06:15:00,
2013-03-05 00:20:00,20.8,8.4,29.68,NE,45,0.0,0.0,58,0.00,,,-99.99,VWS V12.07,2013-03-05 06:20:00,
2013-03-05 00:30:00,20.4,8.4,29.68,NE,45,0.0,0.0,59,0.00,,,-99.99,VWS V12.07,2013-03-05 06:30:00,
2013-03-05 00:35:00,20.4,8.4,29.68,NE,45,0.0,0.0,59,0.00,,,-99.99,VWS V12.07,2013-03-05 06:35:00,
2013-03-05 00:40:00,20.3,8.3,29.68,NE,45,0.0,0.0,59,0.00,,,-99.99,VWS V12.07,2013-03-05 06:40:00,
2013-03-05 00:50:00,20.1,8.1,29.68,NE,45,4.9,4.9,59,0.00,,,-99.99,VWS V12.07,2013-03-05 06:50:00,
2013-03-05 00:55:00,19.9,7.9,29.68,NE,45,0.0,4.9,59,0.00,,,-99.99,VWS V12.07,2013-03-05 06:55:00,
2013-03-05 01:00:00,19.9,7.9,29.68,NE,45,0.0,4.9,59,0.00,,,-99.99,VWS V12.07,2013-03-05 07:00:00,
2013-03-05 01:05:00,19.7,7.7,29.68,NE,45,0.0,0.0,59,0.00,,,-99.99,VWS V12.07,2013-03-05 07:05:00,
2013-03-05 01:10:00,19.5,7.9,29.68,NE,45,0.0,5.5,60,0.00,,,-99.99,VWS V12.07,2013-03-05 07:10:00,
2013-03-05 01:15:00,19.5,7.9,29.68,NE,45,0.0,5.5,60,0.00,,,-99.99,VWS V12.07,2013-03-05 07:15:00,
2013-03-05 01:20:00,19.5,7.9,29.68,NE,45,0.0,0.0,60,0.00,,,-99.99,VWS V12.07,2013-03-05 07:20:00,
2013-03-05 01:25:00,19.5,7.9,29.68,NE,45,0.0,0.0,60,0.00,,,-99.99,VWS V12.07,2013-03-05 07:25:00,
2013-03-05 01:30:00,19.5,8.3,29.68,NE,45,0.0,0.0,61,0.00,,,-99.99,VWS V12.07,2013-03-05 07:30:00,
2013-03-05 01:35:00,19.5,8.3,29.68,NE,45,0.0,0.0,61,0.00,,,-99.99,VWS V12.07,2013-03-05 07:35:00,
2013-03-05 01:40:00,19.4,8.5,29.68,NE,45,0.0,5.1,62,0.00,,,-99.99,VWS V12.07,2013-03-05 07:40:00,
2013-03-05 01:45:00,19.4,8.5,29.67,NE,45,0.0,5.1,62,0.00,,,-99.99,VWS V12.07,2013-03-05 07:45:00,
2013-03-05 01:50:00,19.4,8.5,29.67,NE,45,0.0,7.1,62,0.00,,,-99.99,VWS V12.07,2013-03-05 07:50:00,
2013-03-05 01:55:00,19.2,8.7,29.66,NE,45,0.0,7.1,63,0.00,,,-99.99,VWS V12.07,2013-03-05 07:55:00,
2013-03-05 02:00:00,19.2,8.7,29.67,NE,45,0.0,7.1,63,0.00,,,-99.99,VWS V12.07,2013-03-05 08:00:00,
2013-03-05 02:05:00,19.2,8.7,29.67,NE,45,0.0,0.0,63,0.00,,,-99.99,VWS V12.07,2013-03-05 08:05:00,
2013-03-05 02:10:00,19.2,8.7,29.67,NE,45,0.0,0.0,63,0.00,,,-99.99,VWS V12.07,2013-03-05 08:10:00,
2013-03-05 02:15:00,19.2,9.0,29.66,NE,45,0.0,0.0,64,0.00,,,-99.99,VWS V12.07,2013-03-05 08:15:00,
2013-03-05 02:20:00,19.2,9.0,29.66,NE,45,0.0,0.0,64,0.00,,,-99.99,VWS V12.07,2013-03-05 08:20:00,
2013-03-05 02:25:00,19.2,9.4,29.66,NE,45,3.1,3.1,65,0.00,,,-99.99,VWS V12.07,2013-03-05 08:25:00,
2013-03-05 02:30:00,19.2,9.4,29.67,NE,45,0.0,3.1,65,0.00,,,-99.99,VWS V12.07,2013-03-05 08:30:00,
2013-03-05 02:35:00,19.2,9.4,29.66,NE,45,0.0,0.0,65,0.00,,,-99.99,VWS V12.07,2013-03-05 08:35:00,
2013-03-05 02:40:00,19.2,9.4,29.66,NE,45,0.0,0.0,65,0.00,,,-99.99,VWS V12.07,2013-03-05 08:40:00,
2013-03-05 02:45:00,19.2,9.7,29.66,NE,45,0.0,0.0,66,0.00,,,-99.99,VWS V12.07,2013-03-05 08:45:00,
2013-03-05 02:50:00,19.2,9.7,29.66,NE,45,0.0,0.0,66,0.00,,,-99.99,VWS V12.07,2013-03-05 08:50:00,
2013-03-05 02:55:00,19.2,9.7,29.66,NE,45,0.0,0.0,66,0.00,,,-99.99,VWS V12.07,2013-03-05 08:55:00,
2013-03-05 03:00:00,19.2,10.1,29.66,NE,45,0.0,0.0,67,0.00,,,-99.99,VWS V12.07,2013-03-05 09:00:00,
2013-03-05 03:05:00,19.2,10.1,29.65,NE,45,0.0,0.0,67,0.00,,,-99.99,VWS V12.07,2013-03-05 09:05:00,
2013-03-05 03:10:00,19.2,10.1,29.65,NE,45,0.0,0.0,67,0.00,,,-99.99,VWS V12.07,2013-03-05 09:10:00,
2013-03-05 03:20:00,19.2,10.4,29.65,NE,45,0.0,0.0,68,0.00,,,-99.99,VWS V12.07,2013-03-05 09:20:00,
2013-03-05 03:30:00,19.2,10.7,29.65,NE,45,0.0,0.0,69,0.00,,,-99.99,VWS V12.07,2013-03-05 09:30:00,
2013-03-05 03:35:00,19.2,10.7,29.65,NE,45,0.0,0.0,69,0.00,,,-99.99,VWS V12.07,2013-03-05 09:35:00,
2013-03-05 03:40:00,19.2,10.7,29.64,NE,45,0.0,0.0,69,0.00,,,-99.99,VWS V12.07,2013-03-05 09:40:00,
2013-03-05 03:45:00,19.2,10.7,29.64,NE,45,0.0,0.0,69,0.00,,,-99.99,VWS V12.07,2013-03-05 09:45:00,
2013-03-05 03:50:00,19.2,11.0,29.64,NE,45,0.0,0.0,70,0.00,,,-99.99,VWS V12.07,2013-03-05 09:50:00,
2013-03-05 03:55:00,19.2,11.0,29.63,NE,45,2.2,2.2,70,0.00,,,-99.99,VWS V12.07,2013-03-05 09:55:00,
2013-03-05 04:00:00,19.2,11.4,29.63,NE,45,2.2,6.0,71,0.00,,,-99.99,VWS V12.07,2013-03-05 10:00:00,
2013-03-05 04:05:00,19.2,11.4,29.64,NE,45,0.0,0.0,71,0.00,,,-99.99,VWS V12.07,2013-03-05 10:05:00,
2013-03-05 04:10:00,19.2,11.4,29.65,NE,45,0.0,0.0,71,0.00,,,-99.99,VWS V12.07,2013-03-05 10:10:00,
2013-03-05 04:15:00,19.4,11.6,29.66,NE,45,0.0,0.0,71,0.00,,,-99.99,VWS V12.07,2013-03-05 10:15:00,
2013-03-05 04:20:00,19.4,11.6,29.66,NE,45,0.0,3.3,71,0.00,,,-99.99,VWS V12.07,2013-03-05 10:20:00,
2013-03-05 04:25:00,19.4,11.9,29.66,NE,45,6.2,6.2,72,0.00,,,-99.99,VWS V12.07,2013-03-05 10:25:00,
2013-03-05 04:30:00,19.4,11.9,29.65,NE,45,0.0,6.2,72,0.00,,,-99.99,VWS V12.07,2013-03-05 10:30:00,
2013-03-05 04:35:00,19.5,12.0,29.65,NE,45,3.1,3.1,72,0.00,,,-99.99,VWS V12.07,2013-03-05 10:35:00,
2013-03-05 04:40:00,19.5,12.0,29.63,NE,45,2.4,9.6,72,0.00,,,-99.99,VWS V12.07,2013-03-05 10:40:00,
2013-03-05 04:45:00,19.5,12.0,29.63,NE,45,6.2,9.6,72,0.00,,,-99.99,VWS V12.07,2013-03-05 10:45:00,
2013-03-05 04:50:00,19.5,12.0,29.61,NE,45,1.7,1.7,72,0.00,,,-99.99,VWS V12.07,2013-03-05 10:50:00,
2013-03-05 04:55:00,19.5,12.0,29.62,NE,45,0.0,1.7,72,0.00,,,-99.99,VWS V12.07,2013-03-05 10:55:00,
2013-03-05 05:05:00,19.5,12.0,29.62,NE,45,3.5,3.5,72,0.00,,,-99.99,VWS V12.07,2013-03-05 11:05:00,
2013-03-05 05:10:00,19.5,12.0,29.62,ENE,68,3.3,3.5,72,0.00,,,-99.99,VWS V12.07,2013-03-05 11:10:00,
2013-03-05 05:15:00,19.5,12.0,29.61,NE,45,2.4,3.5,72,0.00,,,-99.99,VWS V12.07,2013-03-05 11:15:00,
2013-03-05 05:25:00,19.5,12.0,29.61,NE,45,0.0,8.2,72,0.00,,,-99.99,VWS V12.07,2013-03-05 11:25:00,
2013-03-05 05:30:00,19.5,12.0,29.62,ENE,68,5.8,8.2,72,0.00,,,-99.99,VWS V12.07,2013-03-05 11:30:00,
2013-03-05 05:35:00,19.5,11.6,29.61,NE,45,1.1,2.2,71,0.00,,,-99.99,VWS V12.07,2013-03-05 11:35:00,
2013-03-05 05:40:00,19.7,11.8,29.61,NE,45,3.1,3.1,71,0.00,,,-99.99,VWS V12.07,2013-03-05 11:40:00,
2013-03-05 05:45:00,19.7,11.8,29.61,NE,45,3.5,5.5,71,0.00,,,-99.99,VWS V12.07,2013-03-05 11:45:00,
2013-03-05 05:50:00,19.7,11.5,29.60,NE,45,0.0,4.9,70,0.00,,,-99.99,VWS V12.07,2013-03-05 11:50:00,
2013-03-05 05:55:00,19.7,11.5,29.59,NE,45,1.1,4.9,70,0.00,,,-99.99,VWS V12.07,2013-03-05 11:55:00,
2013-03-05 06:00:00,19.7,11.5,29.59,NE,45,5.8,5.8,70,0.00,,,-99.99,VWS V12.07,2013-03-05 12:00:00,
2013-03-05 06:05:00,19.7,11.2,29.60,NE,45,5.1,5.1,69,0.00,,,-99.99,VWS V12.07,2013-03-05 12:05:00,
2013-03-05 06:10:00,19.7,11.2,29.62,NE,45,5.3,5.3,69,0.00,,,-99.99,VWS V12.07,2013-03-05 12:10:00,
2013-03-05 06:15:00,19.7,11.2,29.63,NE,45,0.8,5.3,69,0.00,,,-99.99,VWS V12.07,2013-03-05 12:15:00,
2013-03-05 06:20:00,19.7,10.9,29.62,NE,45,3.8,3.8,68,0.00,,,-99.99,VWS V12.07,2013-03-05 12:20:00,
2013-03-05 06:25:00,19.7,10.9,29.62,NE,45,4.0,4.0,68,0.00,,,-99.99,VWS V12.07,2013-03-05 12:25:00,
2013-03-05 06:35:00,19.7,10.5,29.62,NE,45,0.0,2.9,67,0.00,,,-99.99,VWS V12.07,2013-03-05 12:35:00,
2013-03-05 06:40:00,19.7,10.5,29.63,NE,45,3.3,3.3,67,0.00,,,-99.99,VWS V12.07,2013-03-05 12:40:00,
2013-03-05 06:45:00,19.7,10.5,29.63,NE,45,2.4,3.3,67,0.00,,,-99.99,VWS V12.07,2013-03-05 12:45:00,
2013-03-05 06:50:00,19.7,10.5,29.63,NE,45,4.9,4.9,67,0.00,,,-99.99,VWS V12.07,2013-03-05 12:50:00,
2013-03-05 07:00:00,19.7,10.5,29.63,NE,45,0.0,7.6,67,0.00,,,-99.99,VWS V12.07,2013-03-05 13:00:00,
2013-03-05 07:05:00,19.9,10.7,29.62,NE,45,0.0,3.5,67,0.00,,,-99.99,VWS V12.07,2013-03-05 13:05:00,
2013-03-05 07:10:00,19.9,10.7,29.62,NE,45,0.0,3.5,67,0.00,,,-99.99,VWS V12.07,2013-03-05 13:10:00,
2013-03-05 07:15:00,19.7,10.5,29.61,ENE,68,2.9,3.5,67,0.00,,,-99.99,VWS V12.07,2013-03-05 13:15:00,
2013-03-05 07:25:00,19.9,10.7,29.60,ENE,68,3.8,5.8,67,0.00,,,-99.99,VWS V12.07,2013-03-05 13:25:00,
2013-03-05 07:30:00,19.9,10.7,29.60,NNE,22,8.0,8.0,67,0.00,,,-99.99,VWS V12.07,2013-03-05 13:30:00,
2013-03-05 07:35:00,19.9,10.7,29.61,NE,45,5.8,5.8,67,0.00,,,-99.99,VWS V12.07,2013-03-05 13:35:00,
2013-03-05 07:40:00,19.9,11.1,29.61,NE,45,0.0,5.8,68,0.00,,,-99.99,VWS V12.07,2013-03-05 13:40:00,
2013-03-05 07:45:00,19.9,11.1,29.61,NE,45,6.2,6.2,68,0.00,,,-99.99,VWS V12.07,2013-03-05 13:45:00,
2013-03-05 07:50:00,19.9,11.1,29.61,NE,45,2.4,3.5,68,0.00,,,-99.99,VWS V12.07,2013-03-05 13:50:00,
2013-03-05 07:55:00,20.1,11.2,29.61,NE,45,0.0,3.5,68,0.00,,,-99.99,VWS V12.07,2013-03-05 13:55:00,
2013-03-05 08:00:00,19.9,11.1,29.61,NE,45,5.8,6.7,68,0.00,,,-99.99,VWS V12.07,2013-03-05 14:00:00,
2013-03-05 08:05:00,19.9,11.1,29.61,ENE,68,3.5,6.4,68,0.00,,,-99.99,VWS V12.07,2013-03-05 14:05:00,
2013-03-05 08:10:00,19.9,11.1,29.60,ENE,68,2.0,6.4,68,0.00,,,-99.99,VWS V12.07,2013-03-05 14:10:00,
2013-03-05 08:15:00,19.9,11.1,29.61,NE,45,2.6,6.4,68,0.00,,,-99.99,VWS V12.07,2013-03-05 14:15:00,
2013-03-05 08:20:00,20.1,11.2,29.62,NE,45,0.0,0.0,68,0.00,,,-99.99,VWS V12.07,2013-03-05 14:20:00,
2013-03-05 08:25:00,20.1,11.2,29.64,NE,45,0.0,3.1,68,0.00,,,-99.99,VWS V12.07,2013-03-05 14:25:00,
2013-03-05 08:30:00,20.3,11.4,29.64,NE,45,2.9,5.5,68,0.00,,,-99.99,VWS V12.07,2013-03-05 14:30:00,
2013-03-05 08:35:00,20.4,11.5,29.63,NE,45,0.0,1.1,68,0.00,,,-99.99,VWS V12.07,2013-03-05 14:35:00,
2013-03-05 08:40:00,20.4,11.5,29.63,NE,45,3.5,3.8,68,0.00,,,-99.99,VWS V12.07,2013-03-05 14:40:00,
2013-03-05 08:45:00,20.4,11.5,29.63,ENE,68,2.0,8.7,68,0.00,,,-99.99,VWS V12.07,2013-03-05 14:45:00,
2013-03-05 08:50:00,20.8,11.9,29.63,NE,45,0.0,6.2,68,0.00,,,-99.99,VWS V12.07,2013-03-05 14:50:00,
2013-03-05 08:55:00,20.8,11.9,29.64,NE,45,0.0,6.2,68,0.00,,,-99.99,VWS V12.07,2013-03-05 14:55:00,
2013-03-05 09:00:00,21.0,12.1,29.65,NE,45,1.5,6.2,68,0.00,,,-99.99,VWS V12.07,2013-03-05 15:00:00,
2013-03-05 09:05:00,21.2,12.3,29.65,NNE,22,6.0,6.0,68,0.00,,,-99.99,VWS V12.07,2013-03-05 15:05:00,
2013-03-05 09:10:00,21.3,12.4,29.64,NE,45,0.0,6.0,68,0.00,,,-99.99,VWS V12.07,2013-03-05 15:10:00,
2013-03-05 09:20:00,21.7,12.4,29.63,ENE,68,0.0,5.1,67,0.00,,,-99.99,VWS V12.07,2013-03-05 15:20:00,
2013-03-05 09:30:00,21.7,12.4,29.62,NE,45,6.0,6.0,67,0.00,,,-99.99,VWS V12.07,2013-03-05 15:30:00,
2013-03-05 09:35:00,21.9,12.6,29.61,NE,45,6.0,7.8,67,0.00,,,-99.99,VWS V12.07,2013-03-05 15:35:00,
2013-03-05 09:40:00,21.9,12.6,29.62,NE,45,2.9,7.8,67,0.00,,,-99.99,VWS V12.07,2013-03-05 15:40:00,
2013-03-05 09:50:00,22.2,12.6,29.63,NE,45,0.0,6.2,66,0.00,,,-99.99,VWS V12.07,2013-03-05 15:50:00,
2013-03-05 09:55:00,22.6,13.0,29.63,NE,45,0.0,6.2,66,0.00,,,-99.99,VWS V12.07,2013-03-05 15:55:00,
2013-03-05 10:05:00,22.8,13.2,29.63,ENE,68,0.0,2.9,66,0.00,,,-99.99,VWS V12.07,2013-03-05 16:05:00,
2013-03-05 10:10:00,23.1,13.4,29.64,ENE,68,3.5,3.5,66,0.00,,,-99.99,VWS V12.07,2013-03-05 16:10:00,
2013-03-05 10:15:00,23.5,13.5,29.64,NE,45,5.8,7.3,65,0.00,,,-99.99,VWS V12.07,2013-03-05 16:15:00,
2013-03-05 10:20:00,23.5,13.5,29.64,ENE,68,0.0,4.2,65,0.00,,,-99.99,VWS V12.07,2013-03-05 16:20:00,
2013-03-05 10:30:00,23.9,13.9,29.64,ENE,68,0.0,4.2,65,0.00,,,-99.99,VWS V12.07,2013-03-05 16:30:00,
2013-03-05 10:35:00,24.0,13.6,29.64,NE,45,5.5,5.5,64,0.00,,,-99.99,VWS V12.07,2013-03-05 16:35:00,
2013-03-05 10:40:00,24.4,14.0,29.65,NE,45,0.0,5.5,64,0.00,,,-99.99,VWS V12.07,2013-03-05 16:40:00,
2013-03-05 10:50:00,24.6,13.8,29.63,NE,45,1.3,6.0,63,0.00,,,-99.99,VWS V12.07,2013-03-05 16:50:00,
2013-03-05 10:55:00,24.9,14.1,29.65,NE,45,0.0,6.0,63,0.00,,,-99.99,VWS V12.07,2013-03-05 16:55:00,
2013-03-05 11:00:00,25.3,14.5,29.66,NE,45,0.0,6.0,63,0.00,,,-99.99,VWS V12.07,2013-03-05 17:00:00,
2013-03-05 11:05:00,25.5,14.7,29.66,NE,45,0.0,5.8,63,0.00,,,-99.99,VWS V12.07,2013-03-05 17:05:00,
2013-03-05 11:10:00,25.8,15.0,29.66,NE,45,0.0,5.8,63,0.00,,,-99.99,VWS V12.07,2013-03-05 17:10:00,
2013-03-05 11:15:00,26.2,15.3,29.67,NE,45,5.5,5.8,63,0.00,,,-99.99,VWS V12.07,2013-03-05 17:15:00,
2013-03-05 11:20:00,26.7,15.4,29.66,NNE,22,0.0,0.0,62,0.00,,,-99.99,VWS V12.07,2013-03-05 17:20:00,
2013-03-05 11:25:00,27.1,15.8,29.66,NNE,22,0.0,0.0,62,0.00,,,-99.99,VWS V12.07,2013-03-05 17:25:00,
2013-03-05 11:30:00,27.3,16.0,29.65,NNE,22,2.0,2.0,62,0.00,,,-99.99,VWS V12.07,2013-03-05 17:30:00,
2013-03-05 11:35:00,28.0,16.3,29.65,NE,45,4.2,4.4,61,0.00,,,-99.99,VWS V12.07,2013-03-05 17:35:00,
2013-03-05 11:40:00,28.0,16.3,29.64,NE,45,5.3,5.3,61,0.00,,,-99.99,VWS V12.07,2013-03-05 17:40:00,
2013-03-05 11:45:00,28.0,15.9,29.63,NE,45,4.4,5.3,60,0.00,,,-99.99,VWS V12.07,2013-03-05 17:45:00,
2013-03-05 11:50:00,28.2,16.1,29.63,NE,45,3.1,4.0,60,0.00,,,-99.99,VWS V12.07,2013-03-05 17:50:00,
2013-03-05 11:55:00,28.4,16.3,29.63,NE,45,7.6,7.6,60,0.00,,,-99.99,VWS V12.07,2013-03-05 17:55:00,
2013-03-05 12:00:00,28.7,16.2,29.63,NNE,22,2.2,7.6,59,0.00,,,-99.99,VWS V12.07,2013-03-05 18:00:00,
2013-03-05 12:10:00,29.1,16.2,29.63,NE,45,1.1,6.4,58,0.00,,,-99.99,VWS V12.07,2013-03-05 18:10:00,
2013-03-05 12:15:00,28.9,16.0,29.63,NE,45,3.5,6.4,58,0.00,,,-99.99,VWS V12.07,2013-03-05 18:15:00,
2013-03-05 12:20:00,28.7,15.4,29.63,NE,45,3.3,4.2,57,0.00,,,-99.99,VWS V12.07,2013-03-05 18:20:00,
2013-03-05 12:30:00,28.4,15.1,29.62,NE,45,0.0,4.2,57,0.00,,,-99.99,VWS V12.07,2013-03-05 18:30:00,
2013-03-05 12:35:00,28.5,15.2,29.62,NE,45,4.2,4.2,57,0.00,,,-99.99,VWS V12.07,2013-03-05 18:35:00,
2013-03-05 12:40:00,28.5,15.2,29.62,NE,45,4.0,4.2,57,0.00,,,-99.99,VWS V12.07,2013-03-05 18:40:00,
2013-03-05 12:45:00,28.5,15.2,29.62,NE,45,3.5,4.2,57,0.00,,,-99.99,VWS V12.07,2013-03-05 18:45:00,
2013-03-05 12:50:00,28.5,14.8,29.62,NE,45,5.5,6.0,56,0.00,,,-99.99,VWS V12.07,2013-03-05 18:50:00,
2013-03-05 12:55:00,28.7,15.0,29.61,NE,45,1.1,6.0,56,0.00,,,-99.99,VWS V12.07,2013-03-05 18:55:00,
2013-03-05 13:00:00,28.5,14.8,29.61,NNE,22,0.0,6.0,56,0.00,,,-99.99,VWS V12.07,2013-03-05 19:00:00,
2013-03-05 13:05:00,28.7,15.0,29.61,NE,45,3.3,6.0,56,0.00,,,-99.99,VWS V12.07,2013-03-05 19:05:00,
2013-03-05 13:10:00,28.5,14.8,29.60,NE,45,4.4,6.0,56,0.00,,,-99.99,VWS V12.07,2013-03-05 19:10:00,
2013-03-05 13:20:00,28.2,14.1,29.60,NE,45,2.4,2.4,55,0.00,,,-99.99,VWS V12.07,2013-03-05 19:20:00,
2013-03-05 13:25:00,28.2,14.1,29.60,NE,45,9.1,9.1,55,0.00,,,-99.99,VWS V12.07,2013-03-05 19:25:00,
2013-03-05 13:30:00,28.2,14.1,29.60,NE,45,2.2,9.1,55,0.00,,,-99.99,VWS V12.07,2013-03-05 19:30:00,
2013-03-05 13:35:00,28.2,14.1,29.60,NE,45,7.6,7.6,55,0.00,,,-99.99,VWS V12.07,2013-03-05 19:35:00,
2013-03-05 13:45:00,28.0,13.9,29.59,ENE,68,3.8,10.7,55,0.00,,,-99.99,VWS V12.07,2013-03-05 19:45:00,
2013-03-05 13:50:00,28.0,13.9,29.59,NE,45,6.7,8.0,55,0.00,,,-99.99,VWS V12.07,2013-03-05 19:50:00,
2013-03-05 14:00:00,28.0,13.9,29.58,NE,45,8.5,8.5,55,0.00,,,-99.99,VWS V12.07,2013-03-05 20:00:00,
2013-03-05 14:05:00,28.0,13.9,29.59,ENE,68,6.0,7.8,55,0.00,,,-99.99,VWS V12.07,2013-03-05 20:05:00,
2013-03-05 14:10:00,28.0,14.3,29.60,NE,45,1.5,11.6,56,0.00,,,-99.99,VWS V12.07,2013-03-05 20:10:00,
2013-03-05 14:15:00,28.0,14.3,29.61,NE,45,9.1,11.6,56,0.00,,,-99.99,VWS V12.07,2013-03-05 20:15:00,
2013-03-05 14:20:00,27.6,14.4,29.61,ENE,68,6.4,6.4,57,0.00,,,-99.99,VWS V12.07,2013-03-05 20:20:00,
2013-03-05 14:25:00,27.6,14.8,29.60,NNE,22,1.5,6.4,58,0.00,,,-99.99,VWS V12.07,2013-03-05 20:25:00,
2013-03-05 14:30:00,27.6,14.8,29.60,NE,45,0.0,6.4,58,0.00,,,-99.99,VWS V12.07,2013-03-05 20:30:00,
2013-03-05 14:35:00,27.6,14.8,29.60,NE,45,3.3,3.3,58,0.00,,,-99.99,VWS V12.07,2013-03-05 20:35:00,
2013-03-05 14:40:00,27.6,15.2,29.60,NE,45,2.2,8.9,59,0.00,,,-99.99,VWS V12.07,2013-03-05 20:40:00,
2013-03-05 14:50:00,27.5,15.4,29.61,ENE,68,5.1,6.2,60,0.00,,,-99.99,VWS V12.07,2013-03-05 20:50:00,
2013-03-05 14:55:00,27.5,15.4,29.61,NE,45,1.1,6.2,60,0.00,,,-99.99,VWS V12.07,2013-03-05 20:55:00,
2013-03-05 15:00:00,27.3,15.6,29.61,NE,45,6.4,6.4,61,0.00,,,-99.99,VWS V12.07,2013-03-05 21:00:00,
2013-03-05 15:05:00,27.3,15.6,29.61,NE,45,2.0,6.9,61,0.00,,,-99.99,VWS V12.07,2013-03-05 21:05:00,
2013-03-05 15:10:00,27.3,15.6,29.62,NE,45,3.3,6.9,61,0.00,,,-99.99,VWS V12.07,2013-03-05 21:10:00,
2013-03-05 15:15:00,27.1,15.8,29.62,NE,45,1.5,6.9,62,0.00,,,-99.99,VWS V12.07,2013-03-05 21:15:00,
2013-03-05 15:20:00,27.1,15.8,29.60,NE,45,4.2,9.6,62,0.00,,,-99.99,VWS V12.07,2013-03-05 21:20:00,
2013-03-05 15:25:00,27.1,16.2,29.60,NE,45,5.8,9.6,63,0.00,,,-99.99,VWS V12.07,2013-03-05 21:25:00,
2013-03-05 15:30:00,27.1,16.2,29.59,NNE,22,0.0,9.6,63,0.00,,,-99.99,VWS V12.07,2013-03-05 21:30:00,
2013-03-05 15:35:00,26.9,16.4,29.58,NE,45,5.3,5.3,64,0.00,,,-99.99,VWS V12.07,2013-03-05 21:35:00,
2013-03-05 15:40:00,26.9,16.4,29.60,NNE,22,6.0,6.0,64,0.00,,,-99.99,VWS V12.07,2013-03-05 21:40:00,
2013-03-05 15:45:00,26.9,16.4,29.61,NE,45,6.7,6.7,64,0.00,,,-99.99,VWS V12.07,2013-03-05 21:45:00,
2013-03-05 15:50:00,26.7,16.2,29.61,NNE,22,2.4,4.6,64,0.00,,,-99.99,VWS V12.07,2013-03-05 21:50:00,
2013-03-05 15:55:00,26.6,16.4,29.61,NNE,22,5.1,5.1,65,0.00,,,-99.99,VWS V12.07,2013-03-05 21:55:00,
2013-03-05 16:00:00,26.4,16.2,29.62,NW,315,0.0,5.1,65,0.00,,,-99.99,VWS V12.07,2013-03-05 22:00:00,
2013-03-05 16:05:00,26.2,16.4,29.62,NE,45,1.5,7.8,66,0.00,,,-99.99,VWS V12.07,2013-03-05 22:05:00,
2013-03-05 16:10:00,25.8,16.0,29.62,NE,45,0.6,7.8,66,0.00,,,-99.99,VWS V12.07,2013-03-05 22:10:00,
2013-03-05 16:15:00,25.5,16.1,29.62,NE,45,4.9,7.8,67,0.00,,,-99.99,VWS V12.07,2013-03-05 22:15:00,
2013-03-05 16:25:00,25.1,16.0,29.63,NE,45,4.0,4.9,68,0.00,,,-99.99,VWS V12.07,2013-03-05 22:25:00,
2013-03-05 16:35:00,24.9,15.9,29.63,ESE,112,4.6,4.6,68,0.00,,,-99.99,VWS V12.07,2013-03-05 22:35:00,
2013-03-05 16:40:00,24.9,15.9,29.64,NNE,22,2.0,7.3,68,0.00,,,-99.99,VWS V12.07,2013-03-05 22:40:00,
2013-03-05 16:45:00,24.6,15.9,29.64,North,0,1.5,7.3,69,0.00,,,-99.99,VWS V12.07,2013-03-05 22:45:00,
2013-03-05 16:55:00,24.4,15.7,29.64,NE,45,0.0,4.4,69,0.00,,,-99.99,VWS V12.07,2013-03-05 22:55:00,
2013-03-05 17:00:00,24.4,15.7,29.65,NE,45,1.1,4.4,69,0.00,,,-99.99,VWS V12.07,2013-03-05 23:00:00,
2013-03-05 17:05:00,24.2,15.5,29.65,NE,45,4.0,5.5,69,0.00,,,-99.99,VWS V12.07,2013-03-05 23:05:00,
2013-03-05 17:10:00,24.0,15.6,29.65,NE,45,0.0,5.5,70,0.00,,,-99.99,VWS V12.07,2013-03-05 23:10:00,
2013-03-05 17:15:00,23.9,15.6,29.65,NE,45,2.6,5.5,70,0.00,,,-99.99,VWS V12.07,2013-03-05 23:15:00,
2013-03-05 17:20:00,23.9,15.6,29.65,NE,45,7.1,7.1,70,0.00,,,-99.99,VWS V12.07,2013-03-05 23:20:00,
2013-03-05 17:25:00,23.7,15.4,29.64,NE,45,3.1,7.1,70,0.00,,,-99.99,VWS V12.07,2013-03-05 23:25:00,
2013-03-05 17:30:00,23.5,15.5,29.64,NE,45,5.8,7.1,71,0.00,,,-99.99,VWS V12.07,2013-03-05 23:30:00,
2013-03-05 17:35:00,23.5,15.5,29.65,NE,45,3.3,3.3,71,0.00,,,-99.99,VWS V12.07,2013-03-05 23:35:00,
2013-03-05 17:40:00,23.3,15.3,29.65,NNW,338,0.0,3.3,71,0.00,,,-99.99,VWS V12.07,2013-03-05 23:40:00,
2013-03-05 17:50:00,23.1,15.4,29.66,NE,45,10.2,10.2,72,0.00,,,-99.99,VWS V12.07,2013-03-05 23:50:00,
2013-03-05 17:55:00,22.8,15.1,29.66,NE,45,9.6,10.2,72,0.00,,,-99.99,VWS V12.07,2013-03-05 23:55:00,
2013-03-05 18:00:00,22.8,15.1,29.66,NNE,22,0.0,10.2,72,0.00,,,-99.99,VWS V12.07,2013-03-06 00:00:00,
2013-03-05 18:05:00,22.6,15.3,29.67,NNE,22,4.6,5.3,73,0.00,,,-99.99,VWS V12.07,2013-03-06 00:05:00,
2013-03-05 18:10:00,22.6,15.3,29.68,NW,315,2.2,5.3,73,0.00,,,-99.99,VWS V12.07,2013-03-06 00:10:00,
2013-03-05 18:15:00,22.4,15.1,29.67,NE,45,0.0,5.3,73,0.00,,,-99.99,VWS V12.07,2013-03-06 00:15:00,
2013-03-05 18:20:00,22.2,14.9,29.68,NE,45,4.0,4.0,73,0.00,,,-99.99,VWS V12.07,2013-03-06 00:20:00,
2013-03-05 18:25:00,22.2,15.2,29.68,ENE,68,2.6,4.0,74,0.00,,,-99.99,VWS V12.07,2013-03-06 00:25:00,
2013-03-05 18:30:00,22.1,15.1,29.68,NE,45,5.1,6.7,74,0.00,,,-99.99,VWS V12.07,2013-03-06 00:30:00,
2013-03-05 18:35:00,22.1,15.1,29.68,NE,45,2.4,8.5,74,0.00,,,-99.99,VWS V12.07,2013-03-06 00:35:00,
2013-03-05 18:40:00,21.9,14.9,29.68,NE,45,2.4,8.5,74,0.00,,,-99.99,VWS V12.07,2013-03-06 00:40:00,
2013-03-05 18:45:00,21.9,15.2,29.68,NE,45,4.0,8.5,75,0.00,,,-99.99,VWS V12.07,2013-03-06 00:45:00,
2013-03-05 18:50:00,21.9,15.2,29.68,NE,45,0.0,4.6,75,0.00,,,-99.99,VWS V12.07,2013-03-06 00:50:00,
2013-03-05 18:55:00,21.9,15.2,29.68,ENE,68,3.3,5.8,75,0.00,,,-99.99,VWS V12.07,2013-03-06 00:55:00,
2013-03-05 19:00:00,21.7,15.0,29.68,NE,45,6.2,6.2,75,0.00,,,-99.99,VWS V12.07,2013-03-06 01:00:00,
2013-03-05 19:05:00,21.7,15.3,29.68,NE,45,6.9,6.9,76,0.00,,,-99.99,VWS V12.07,2013-03-06 01:05:00,
2013-03-05 19:10:00,21.7,15.3,29.68,NE,45,2.2,6.9,76,0.00,,,-99.99,VWS V12.07,2013-03-06 01:10:00,
2013-03-05 19:15:00,21.5,15.1,29.68,NNE,22,6.4,6.9,76,0.00,,,-99.99,VWS V12.07,2013-03-06 01:15:00,
2013-03-05 19:20:00,21.5,15.4,29.69,NE,45,3.5,6.4,77,0.00,,,-99.99,VWS V12.07,2013-03-06 01:20:00,
2013-03-05 19:25:00,21.3,14.9,29.68,ENE,68,1.5,6.4,76,0.00,,,-99.99,VWS V12.07,2013-03-06 01:25:00,
2013-03-05 19:30:00,21.3,14.9,29.68,NNE,22,0.0,6.4,76,0.00,,,-99.99,VWS V12.07,2013-03-06 01:30:00,
2013-03-05 19:35:00,21.3,15.2,29.69,NE,45,2.6,6.4,77,0.00,,,-99.99,VWS V12.07,2013-03-06 01:35:00,
2013-03-05 19:45:00,21.3,15.2,29.69,ENE,68,3.3,9.8,77,0.00,,,-99.99,VWS V12.07,2013-03-06 01:45:00,
2013-03-05 19:50:00,21.3,15.2,29.69,North,0,2.6,4.6,77,0.00,,,-99.99,VWS V12.07,2013-03-06 01:50:00,
2013-03-05 19:55:00,21.3,15.2,29.69,NE,45,5.1,5.1,77,0.00,,,-99.99,VWS V12.07,2013-03-06 01:55:00,
2013-03-05 20:00:00,21.3,15.5,29.69,North,0,2.2,5.1,78,0.00,,,-99.99,VWS V12.07,2013-03-06 02:00:00,
2013-03-05 20:05:00,21.3,15.5,29.69,NE,45,3.8,4.2,78,0.00,,,-99.99,VWS V12.07,2013-03-06 02:05:00,
2013-03-05 20:10:00,21.2,15.4,29.69,NE,45,0.6,4.2,78,0.00,,,-99.99,VWS V12.07,2013-03-06 02:10:00,
2013-03-05 20:15:00,21.0,15.2,29.69,NE,45,1.5,4.2,78,0.00,,,-99.99,VWS V12.07,2013-03-06 02:15:00,
2013-03-05 20:20:00,21.0,15.2,29.69,NNE,22,1.3,5.1,78,0.00,,,-99.99,VWS V12.07,2013-03-06 02:20:00,
2013-03-05 20:25:00,21.0,15.2,29.70,NE,45,2.9,5.1,78,0.00,,,-99.99,VWS V12.07,2013-03-06 02:25:00,
2013-03-05 20:30:00,21.0,15.5,29.70,NNE,22,4.2,5.1,79,0.00,,,-99.99,VWS V12.07,2013-03-06 02:30:00,
2013-03-05 20:35:00,21.0,15.5,29.70,NE,45,5.8,5.8,79,0.00,,,-99.99,VWS V12.07,2013-03-06 02:35:00,
2013-03-05 20:40:00,20.8,15.3,29.70,NNE,22,4.4,5.8,79,0.00,,,-99.99,VWS V12.07,2013-03-06 02:40:00,
2013-03-05 20:45:00,20.8,15.3,29.70,NE,45,5.5,7.3,79,0.00,,,-99.99,VWS V12.07,2013-03-06 02:45:00,
2013-03-05 20:50:00,20.8,15.3,29.70,NE,45,3.5,7.8,79,0.00,,,-99.99,VWS V12.07,2013-03-06 02:50:00,
2013-03-05 20:55:00,20.8,15.3,29.70,NE,45,3.3,7.8,79,0.00,,,-99.99,VWS V12.07,2013-03-06 02:55:00,
2013-03-05 21:00:00,20.6,15.1,29.70,NE,45,0.0,7.8,79,0.00,,,-99.99,VWS V12.07,2013-03-06 03:00:00,
2013-03-05 21:05:00,20.4,14.9,29.70,NE,45,5.5,5.5,79,0.00,,,-99.99,VWS V12.07,2013-03-06 03:05:00,
2013-03-05 21:10:00,20.4,14.9,29.70,NE,45,7.6,7.6,79,0.00,,,-99.99,VWS V12.07,2013-03-06 03:10:00,
2013-03-05 21:15:00,20.4,14.9,29.70,NE,45,4.9,8.5,79,0.00,,,-99.99,VWS V12.07,2013-03-06 03:15:00,
2013-03-05 21:20:00,20.4,15.2,29.70,NE,45,3.5,4.9,80,0.00,,,-99.99,VWS V12.07,2013-03-06 03:20:00,
2013-03-05 21:25:00,20.4,14.9,29.70,NE,45,7.6,7.6,79,0.00,,,-99.99,VWS V12.07,2013-03-06 03:25:00,
2013-03-05 21:30:00,20.3,14.8,29.70,NNE,22,2.9,7.6,79,0.00,,,-99.99,VWS V12.07,2013-03-06 03:30:00,
2013-03-05 21:35:00,20.3,14.8,29.70,NE,45,4.6,4.6,79,0.00,,,-99.99,VWS V12.07,2013-03-06 03:35:00,
2013-03-05 21:40:00,20.3,14.8,29.70,NE,45,4.0,4.6,79,0.00,,,-99.99,VWS V12.07,2013-03-06 03:40:00,
2013-03-05 21:45:00,20.3,14.8,29.71,NE,45,4.6,4.6,79,0.00,,,-99.99,VWS V12.07,2013-03-06 03:45:00,
2013-03-05 21:50:00,20.3,15.1,29.70,NE,45,4.2,6.9,80,0.00,,,-99.99,VWS V12.07,2013-03-06 03:50:00,
2013-03-05 22:00:00,20.1,14.9,29.70,NE,45,4.4,7.8,80,0.00,,,-99.99,VWS V12.07,2013-03-06 04:00:00,
2013-03-05 22:05:00,20.1,14.9,29.71,NE,45,0.0,10.7,80,0.00,,,-99.99,VWS V12.07,2013-03-06 04:05:00,
2013-03-05 22:10:00,20.1,14.9,29.71,NE,45,0.8,10.7,80,0.00,,,-99.99,VWS V12.07,2013-03-06 04:10:00,
2013-03-05 22:15:00,20.1,14.9,29.71,NE,45,0.0,10.7,80,0.00,,,-99.99,VWS V12.07,2013-03-06 04:15:00,
2013-03-05 22:25:00,20.1,14.9,29.71,NE,45,0.8,3.3,80,0.00,,,-99.99,VWS V12.07,2013-03-06 04:25:00,
2013-03-05 22:35:00,19.9,15.0,29.71,NNE,22,0.0,2.9,81,0.00,,,-99.99,VWS V12.07,2013-03-06 04:35:00,
2013-03-05 22:40:00,19.9,15.0,29.71,NNE,22,0.0,2.9,81,0.00,,,-99.99,VWS V12.07,2013-03-06 04:40:00,
2013-03-05 22:50:00,19.9,15.0,29.72,NE,45,0.0,0.0,81,0.00,,,-99.99,VWS V12.07,2013-03-06 04:50:00,
2013-03-05 22:55:00,19.9,15.0,29.71,NE,45,0.0,0.0,81,0.00,,,-99.99,VWS V12.07,2013-03-06 04:55:00,
2013-03-05 23:00:00,19.9,15.0,29.72,NE,45,0.0,5.8,81,0.00,,,-99.99,VWS V12.07,2013-03-06 05:00:00,
2013-03-05 23:05:00,19.9,15.0,29.72,NE,45,0.0,5.3,81,0.00,,,-99.99,VWS V12.07,2013-03-06 05:05:00,
2013-03-05 23:10:00,19.7,14.8,29.72,NE,45,5.8,5.8,81,0.00,,,-99.99,VWS V12.07,2013-03-06 05:10:00,
2013-03-05 23:15:00,19.7,14.8,29.72,NE,45,0.0,5.8,81,0.00,,,-99.99,VWS V12.07,2013-03-06 05:15:00,
2013-03-05 23:20:00,19.7,14.8,29.72,NNW,338,0.0,4.2,81,0.00,,,-99.99,VWS V12.07,2013-03-06 05:20:00,
2013-03-05 23:25:00,19.9,15.0,29.73,NNW,338,0.0,4.2,81,0.00,,,-99.99,VWS V12.07,2013-03-06 05:25:00,
2013-03-05 23:30:00,19.7,14.8,29.73,WNW,292,0.0,4.2,81,0.00,,,-99.99,VWS V12.07,2013-03-06 05:30:00,
2013-03-05 23:35:00,19.7,14.8,29.73,NE,45,0.0,0.0,81,0.00,,,-99.99,VWS V12.07,2013-03-06 05:35:00,
2013-03-05 23:40:00,19.7,14.8,29.73,NNE,22,0.0,0.0,81,0.00,,,-99.99,VWS V12.07,2013-03-06 05:40:00,
2013-03-05 23:45:00,19.7,15.1,29.73,North,0,0.0,0.0,82,0.00,,,-99.99,VWS V12.07,2013-03-06 05:45:00,
2013-03-05 23:50:00,19.7,15.1,29.73,NNW,338,0.4,0.4,82,0.00,,,-99.99,VWS V12.07,2013-03-06 05:50:00,